• Processing (Info)

  • MPEC 2019-U256 : 2019 UQ10

    The following Minor Planet Electronic Circular may be linked-to from your own Web pages, but must not otherwise be redistributed electronically.

    A form allowing access to any MPEC is at the bottom of this page.


    Read MPEC 2019-U255 Read MPEC 2019-U257


    M.P.E.C. 2019-U256                             Issued 2019 October 29, 13:57 UT
    
         The Minor Planet Electronic Circulars contain information on unusual
             minor planets and routine data on comets.  They are published
        on behalf of Division F of the International Astronomical Union by the
              Minor Planet Center, Smithsonian Astrophysical Observatory,
                              Cambridge, MA 02138, U.S.A.
    
                 Prepared using the Tamkin Foundation Computer Network
    
                                  MPC@CFA.HARVARD.EDU
                URL https://www.minorplanetcenter.net/    ISSN 1523-6714
    
                                    2019 UQ10                                
    
    
    Observations:
         K19U10Q* C2019 10 25.39199523 36 40.082+11 46 19.86         22.05wUEU256F51
         K19U10Q  C2019 10 25.41377523 36 38.993+11 46 11.40         22.43wUEU256F51
         K19U10Q  C2019 10 25.42466823 36 38.456+11 46 07.01         22.37wUEU256F51
         K19U10Q KC2019 10 26.24297 23 36 00.10 +11 40 54.0          22.5 RoEU256291
         K19U10Q KC2019 10 26.25122 23 35 59.67 +11 40 50.8          22.6 RoEU256291
         K19U10Q KC2019 10 26.25947 23 35 59.29 +11 40 48.0                oEU256291
         K19U10Q KC2019 10 27.11894 23 35 20.26 +11 35 20.7                oEU256711
         K19U10Q KC2019 10 27.12889 23 35 19.80 +11 35 16.9                oEU256711
         K19U10Q KC2019 10 27.13426 23 35 19.54 +11 35 14.9                oEU256711
         K19U10Q KC2019 10 28.09866 23 34 37.05 +11 29 10.4                oEU256711
         K19U10Q KC2019 10 28.10268 23 34 36.88 +11 29 08.6                oEU256711
         K19U10Q KC2019 10 28.10668 23 34 36.68 +11 29 06.6                oEU256711
         K19U10Q  C2019 10 29.21001423 33 49.898+11 22 13.23         22.98GVEU256T12
         K19U10Q KC2019 10 29.21010 23 33 49.66 +11 22 12.6                oEU256291
         K19U10Q  C2019 10 29.21255523 33 49.789+11 22 12.39         22.86GVEU256T12
         K19U10Q KC2019 10 29.22209 23 33 49.10 +11 22 08.4          22.6 RoEU256291
         K19U10Q KC2019 10 29.23410 23 33 48.58 +11 22 03.7          22.5 RoEU256291
    
    Observer details:
    291 LPL/Spacewatch II.  Observer R. A. Mastaler.  1.8-m f/2.7 reflector + CCD.
    711 McDonald Observatory, Fort Davis.  Observers J. G. Ries, A. Assaf.  
        Measurer J. G. Ries.  2.1-m reflector + CCD + focal reducer.
    F51 Pan-STARRS 1, Haleakala.  Observers J. Bulger, T. Lowe, A. Schultz, M. 
       Willman.  Measurers K. Chambers, S. Chastel, T. de Boer, L. Denneau, J. 
       Fairlamb, H. Flewelling, M. Huber, C.-C. Lin, E. Magnier, Y. Ramanjooloo, R. 
       Wainscoat, R. Weryk.  1.8-m Ritchey-Chretien + CCD.
    T12 Mauna Kea-UH/Tholen NEO Follow-Up (2.24-m).  Observer D. Hung.  Measurer D. 
       J. Tholen.  2.24-m f/10.1 reflector + CCD.
    
    Orbital elements:
    2019 UQ10                                                Earth MOID = 0.3688 AU
    Epoch 2019 Apr. 27.0 TT = JDT 2458600.5                 Bell
    M 296.78079              (2000.0)            P               Q
    n   0.16720650     Peri.  168.95667     -0.38612940     -0.91365050
    a   3.2631267      Node   303.64119     +0.83427138     -0.28711771
    e   0.5860762      Incl.    8.77953     +0.39356747     -0.28776064
    P   5.89           H   18.8           G   0.15           U   8
    Residuals in seconds of arc
    191025 F51  0.1+  0.1+    191027 711  0.4-  0.1-    191029 T12  0.0   0.1-
    191025 F51  0.0   0.0     191027 711  0.2-  0.1-    191029 291  0.5+  0.3+
    191025 F51  0.0   0.2-    191027 711  0.4-  0.1-    191029 T12  0.0   0.0
    191026 291  0.0   0.1+    191028 711  0.5+  0.5+    191029 291  0.1-  0.6+
    191026 291  0.5-  0.1+    191028 711  0.7+  0.2+    191029 291  0.0   0.4+
    191026 291  0.2-  0.4+    191028 711  0.4+  0.3-
    
    Ephemeris:
    2019 UQ10                a,e,i = 3.26, 0.59, 9                   q = 1.3507
    Date    TT    R. A. (2000) Decl.     Delta      r    Elong.  Phase     V
    2019 09 29    00 03 12.5 +14 14 51   1.5773  2.5640   167.2     5.0    22.3
    ...
    2019 10 14    23 47 07.6 +12 57 55   1.5105  2.4640   158.0     8.7    22.2
    ...
    2019 10 22    23 39 30.4 +12 08 00   1.4991  2.4101   149.5    12.1    22.3
    ...
    2019 10 28    23 34 41.2 +11 29 49   1.5005  2.3694   142.8    14.7    22.4
    2019 10 29    23 33 58.5 +11 23 33   1.5015  2.3627   141.7    15.1    22.4
    2019 10 30    23 33 17.4 +11 17 20   1.5027  2.3558   140.6    15.5    22.4
    ...
    2019 11 05    23 29 49.1 +10 41 33   1.5138  2.3149   134.0    18.0    22.5
    ...
    2019 11 13    23 26 59.5 +09 59 52   1.5377  2.2602   125.4    20.9    22.5
    ...
    2019 11 28    23 27 32.5 +09 08 39   1.6022  2.1570   110.6    25.4    22.7
    
    A. U. Tomatic                (C) Copyright 2019 MPC           M.P.E.C. 2019-U256
    


    Read MPEC 2019-U255 Read MPEC 2019-U257


    MPEC number:

    Enter an MPEC number in one of the following forms:

    • 1997-B01 (the full form)
    • J97B01 (the packed version of the full form)
    • B01 (the abbreviated form)